Location: Chenereilles
(45.4866°N, 4.0790°E)
Time: 20:48:55
(UTC+00:00)

Cosmos 1607 - Pass Details

Date: 12 November 2019
Orbit: 928 x 974 km, 65.0° (Epoch: 12 December)

Event Time Altitude Azimuth Distance (km) Brightness Sun altitude
Rises 17:04:04 0° 326° (NW) 3,600 7.2 -8.5°
Reaches altitude 10° 17:06:45 10° 333° (NNW) 2,659 6.4 -9.0°
Maximum altitude 17:12:39 44° 45° (NE) 1,290 4.3 -10.0°
Drops below altitude 10° 17:18:36 10° 116° (ESE) 2,677 5.9 -11.0°
Enters shadow 17:20:48 - 122° (ESE) 3,456 6.5 -11.4°
